Showing default

NAVSTAR 86 (USA 585), 68791

Orbit data source: Space-Track

NAVSTAR 86 (USA 585), 68791 is a payload satellite owned by USSF SSC (US) in MEO that was launched on Tue, 21 Apr 2026 UTC via an FALCON 9 launch vehicle from the Air Force Eastern Test Range (AFETR). Payload-class satellites include a variety of spacecraft equipped with specific instruments for various scientific and technological missions. These include communications satellites like Starlink; space stations such as the ISS; scientific satellites like the Hubble; Earth observation satellites from companies like Planet Labs, Umbra, and HawkEye 360; GPS; miniature CubeSats for education and research; and military/defense satellites.

Loading next visibility...
Identifier
68791, 2026-087A
Orbit
MEO
Country
Flag of USUS
Related business
Manufacturer
LMSS Denver
Mission
Operational spacecraft
Bus & Motor
A2100, LEROS-1C?
Mass
4,352 kg wet, ~2,160 kg dry
Launch date (UTC)
2026-04-21 (1 month ago)
Launch vehicle
FALCON 9
Launch site
Air Force Eastern Test Range (AFETR)
Object type
Payload
Rocket body
Debris
Shape & HBR
Unknown shape, 14.5 m
Radar Cross Section
RCS unknown

Expand to show TLE details & history
Last TLE update: 3 days ago

TLE from 3 days ago
0 NAVSTAR 86 (USA 585)
1 68791U 26087A   26135.51086649  .00000055  00000-0  00000+0 0  9999
2 68791  54.9647 209.0805 0004396 270.1508  92.8793  2.00570335   189
Epoch: 2026-05-15T12:15Z
TLE epoch observation values (Epoch: 2026-05-15T12:15:38.864Z)
Latitude
2.4653°
Longitude
153.65541°
Altitude
20,182.209 km
Speed
3.874 km/s
True Right ascension
14h 03m 14s
True Declination
2° 27' 41"
Sunlit
Object was in daylight at epoch
Visualization orbit readout
Latitude
Unknown
Longitude
Unknown
Altitude
Unknown
Speed
Unknown
Apparent Right ascension
Unknown
Apparent Declination
Unknown
Sunlit
N/A
Visualization observer readout
Local Sidereal Time
08:51:30
Azimuth
Unknown
Elevation
Unknown
Doppler factor
Unknown
Orbital elements
Apogee altitude
20,193.299 km
Perigee altitude
20,169.948 km
Semi-major axis
26,559.761 km
Eccentricity
0.00044
Inclination
54.9647°
RAAN
209.0805°
Arg. of periapsis
270.1508°
True anomaly
92.92961°
Mean anomaly
92.8793°
Eccentric anomaly
92.90445°
Mean motion
0.50143 °/min
Orbital period
717.95 mins
BSTAR
0
Loading maneuver chart data...
Computing Atmospheric mass density...
Loading historical data...
Loading historical data...
Loading historical data...
Loading historical data...
Loading historical data...
Loading historical data...
Loading historical data...
Other satellites on launch #87 in the year 2026 (2026-04-21 UTC)

Documentation

Showing up to 5 results
|